| time (UTC) | temp C | wind direction | speed KPH | gust KPH | rain 1hr cm | rain 24hr cm | rain mn cm | humidity % | barometer mb |
| 20260906105758 | 24 | 101 | 1.6 | 3.2 | 0.00 | 0.00 | 0.00 | 95 | 1017.4 |
| 20260906105254 | 24 | 83 | 0.0 | 1.6 | 0.00 | 0.00 | 0.00 | 95 | 1017.6 |
| 20260906104749 | 24 | 83 | 0.0 | 3.2 | 0.00 | 0.00 | 0.00 | 95 | 1017.3 |
| 20260906104247 | 24 | 85 | 0.0 | 0.0 | 0.00 | 0.00 | 0.00 | 95 | 1017.6 |
| 20260906103746 | 24 | 84 | 1.6 | 3.2 | 0.00 | 0.00 | 0.00 | 95 | 1017.5 |
| 20260906103240 | 24 | 95 | 1.6 | 1.6 | 0.00 | 0.00 | 0.00 | 95 | 1017.4 |
| 20260906102736 | 24 | 80 | 3.2 | 3.2 | 0.00 | 0.00 | 0.00 | 96 | 1017.2 |
| 20260906102234 | 24 | 108 | 0.0 | 1.6 | 0.00 | 0.00 | 0.00 | 96 | 1017.0 |
| 20260906101729 | 24 | 120 | 0.0 | 1.6 | 0.00 | 0.00 | 0.00 | 96 | 1016.9 |
| 20260906101219 | 24 | 118 | 1.6 | 1.6 | 0.00 | 0.00 | 0.00 | 96 | 1017.2 |
| 20260906100714 | 24 | 95 | 1.6 | 3.2 | 0.00 | 0.00 | 0.00 | 97 | 1017.2 |
| 20260906100209 | 24 | 95 | 1.6 | 1.6 | 0.00 | 0.00 | 0.00 | 97 | 1017.3 |
| 20260906095703 | 24 | 129 | 1.6 | 3.2 | 0.00 | 0.00 | 0.00 | 98 | 1017.3 |
| 20260906095159 | 24 | 108 | 1.6 | 4.8 | 0.00 | 0.00 | 0.00 | 98 | 1017.3 |
| 20260906094657 | 24 | 44 | 1.6 | 3.2 | 0.00 | 0.00 | 0.00 | 98 | 1017.4 |
| 20260906094153 | 24 | 111 | 0.0 | 3.2 | 0.00 | 0.00 | 0.00 | 99 | 1017.2 |
| 20260906093650 | 24 | 152 | 0.0 | 0.0 | 0.00 | 0.00 | 0.00 | 99 | 1017.2 |
| 20260906093150 | 24 | 151 | 0.0 | 1.6 | 0.00 | 0.00 | 0.00 | 99 | 1017.0 |
| 20260906092644 | 24 | 151 | 1.6 | 3.2 | 0.00 | 0.00 | 0.00 | 99 | 1017.1 |
| 20260906092139 | 24 | 151 | 3.2 | 3.2 | 0.00 | 0.00 | 0.00 | 99 | 1016.9 |
| 20260906091635 | 24 | 169 | 0.0 | 1.6 | 0.00 | 0.00 | 0.00 | 99 | 1017.0 |
| 20260906091131 | 24 | 169 | 0.0 | 1.6 | 0.00 | 0.00 | 0.00 | 99 | 1017.0 |
| 20260906090626 | 24 | 169 | 3.2 | 3.2 | 0.00 | 0.00 | 0.00 | 99 | 1017.1 |
| 20260906090121 | 24 | 169 | 0.0 | 0.0 | 0.00 | 0.00 | 0.00 | 99 | 1016.9 |
| 20260906085620 | 24 | 169 | 0.0 | 0.0 | 0.00 | 0.00 | 0.00 | 99 | 1017.0 |
| 20260906085114 | 24 | 169 | 0.0 | 0.0 | 0.00 | 0.00 | 0.00 | 99 | 1016.7 |
| 20260906084609 | 24 | 169 | 1.6 | 1.6 | 0.00 | 0.00 | 0.00 | 99 | 1016.7 |
| 20260906084108 | 24 | 169 | 0.0 | 0.0 | 0.00 | 0.00 | 0.00 | 98 | 1016.8 |
| 20260906083604 | 24 | 169 | 0.0 | 0.0 | 0.00 | 0.00 | 0.00 | 98 | 1016.7 |
| 20260906083103 | 24 | 169 | 0.0 | 1.6 | 0.00 | 0.00 | 0.00 | 98 | 1016.5 |
| 20260906082559 | 25 | 169 | 1.6 | 1.6 | 0.00 | 0.00 | 0.00 | 98 | 1016.5 |
| 20260906082054 | 25 | 169 | 1.6 | 1.6 | 0.00 | 0.00 | 0.00 | 98 | 1016.6 |
| 20260906081550 | 25 | 169 | 1.6 | 1.6 | 0.00 | 0.00 | 0.00 | 98 | 1016.9 |
| 20260906081045 | 25 | 169 | 1.6 | 1.6 | 0.00 | 0.00 | 0.00 | 98 | 1016.8 |
| 20260906080542 | 25 | 169 | 0.0 | 0.0 | 0.00 | 0.00 | 0.00 | 98 | 1016.9 |
| 20260906080037 | 25 | 169 | 0.0 | 0.0 | 0.00 | 0.00 | 0.00 | 98 | 1016.6 |
| 20260906075531 | 25 | 169 | 0.0 | 0.0 | 0.00 | 0.00 | 0.00 | 98 | 1016.7 |
| 20260906075026 | 25 | 169 | 0.0 | 1.6 | 0.00 | 0.00 | 0.00 | 98 | 1016.5 |
| 20260906074521 | 25 | 169 | 0.0 | 0.0 | 0.00 | 0.00 | 0.00 | 98 | 1016.7 |
| 20260906074020 | 25 | 169 | 0.0 | 0.0 | 0.00 | 0.00 | 0.00 | 98 | 1016.6 |
| 20260906073515 | 25 | 169 | 1.6 | 1.6 | 0.00 | 0.00 | 0.00 | 98 | 1016.9 |
| 20260906073011 | 24 | 169 | 0.0 | 0.0 | 0.00 | 0.00 | 0.00 | 98 | 1016.6 |
| 20260906072505 | 25 | 169 | 0.0 | 0.0 | 0.00 | 0.00 | 0.00 | 98 | 1016.8 |
| 20260906072002 | 25 | 169 | 0.0 | 1.6 | 0.00 | 0.00 | 0.00 | 98 | 1016.7 |
| 20260906071458 | 25 | 169 | 1.6 | 3.2 | 0.00 | 0.00 | 0.00 | 98 | 1016.8 |
| 20260906070953 | 25 | 169 | 0.0 | 0.0 | 0.00 | 0.00 | 0.00 | 97 | 1016.6 |
| 20260906070448 | 25 | 169 | 0.0 | 0.0 | 0.00 | 0.00 | 0.00 | 97 | 1016.9 |
| 20260906065943 | 25 | 169 | 0.0 | 0.0 | 0.00 | 0.00 | 0.00 | 97 | 1016.8 |
| 20260906065438 | 25 | 169 | 1.6 | 1.6 | 0.00 | 0.00 | 0.00 | 97 | 1016.6 |
| 20260906064933 | 25 | 169 | 1.6 | 1.6 | 0.00 | 0.00 | 0.00 | 97 | 1016.9 |
| 20260906064430 | 25 | 169 | 0.0 | 0.0 | 0.00 | 0.00 | 0.00 | 97 | 1016.9 |
| 20260906063924 | 25 | 169 | 0.0 | 0.0 | 0.00 | 0.00 | 0.00 | 96 | 1017.0 |
| 20260906063419 | 25 | 169 | 3.2 | 3.2 | 0.00 | 0.00 | 0.00 | 96 | 1017.2 |
| 20260906062915 | 25 | 169 | 0.0 | 1.6 | 0.00 | 0.00 | 0.00 | 96 | 1017.1 |
| 20260906062415 | 25 | 169 | 0.0 | 1.6 | 0.00 | 0.00 | 0.00 | 96 | 1017.2 |
| 20260906061909 | 25 | 169 | 0.0 | 0.0 | 0.00 | 0.00 | 0.00 | 95 | 1017.2 |
| 20260906061400 | 25 | 169 | 0.0 | 0.0 | 0.00 | 0.00 | 0.00 | 95 | 1017.1 |
| 20260906060854 | 25 | 169 | 0.0 | 1.6 | 0.00 | 0.00 | 0.00 | 95 | 1017.1 |
| 20260906060352 | 25 | 169 | 0.0 | 0.0 | 0.00 | 0.00 | 0.00 | 94 | 1017.3 |
| 20260906055848 | 26 | 169 | 0.0 | 0.0 | 0.00 | 0.00 | 0.00 | 94 | 1017.2 |
| 20260906055343 | 26 | 169 | 0.0 | 0.0 | 0.00 | 0.00 | 0.00 | 94 | 1017.3 |
| 20260906054838 | 25 | 169 | 0.0 | 1.6 | 0.00 | 0.00 | 0.00 | 94 | 1017.3 |
| 20260906054333 | 25 | 169 | 0.0 | 1.6 | 0.00 | 0.00 | 0.00 | 95 | 1017.4 |
| 20260906053830 | 25 | 169 | 0.0 | 0.0 | 0.00 | 0.00 | 0.00 | 95 | 1017.4 |
| 20260906053325 | 25 | 169 | 0.0 | 1.6 | 0.00 | 0.00 | 0.00 | 96 | 1017.5 |
| 20260906052820 | 25 | 169 | 0.0 | 0.0 | 0.00 | 0.00 | 0.00 | 96 | 1017.5 |
| 20260906052317 | 25 | 169 | 0.0 | 1.6 | 0.00 | 0.00 | 0.00 | 96 | 1017.7 |
| 20260906051814 | 25 | 169 | 1.6 | 1.6 | 0.00 | 0.00 | 0.00 | 97 | 1017.7 |
| 20260906051313 | 25 | 169 | 0.0 | 1.6 | 0.00 | 0.00 | 0.00 | 97 | 1017.4 |
| 20260906050809 | 25 | 169 | 1.6 | 1.6 | 0.00 | 0.00 | 0.00 | 97 | 1017.5 |
| 20260906050304 | 25 | 169 | 0.0 | 0.0 | 0.00 | 0.00 | 0.00 | 97 | 1017.6 |
| 20260906045802 | 25 | 169 | 0.0 | 1.6 | 0.00 | 0.00 | 0.00 | 97 | 1017.6 |
| 20260906045257 | 25 | 169 | 1.6 | 1.6 | 0.00 | 0.00 | 0.00 | 96 | 1017.7 |
| 20260906044754 | 25 | 169 | 0.0 | 0.0 | 0.00 | 0.00 | 0.00 | 96 | 1017.9 |
| 20260906044248 | 25 | 169 | 0.0 | 1.6 | 0.00 | 0.00 | 0.00 | 96 | 1017.5 |
| 20260906043744 | 25 | 169 | 1.6 | 1.6 | 0.00 | 0.00 | 0.00 | 96 | 1017.7 |
| 20260906043240 | 25 | 169 | 0.0 | 0.0 | 0.00 | 0.00 | 0.00 | 96 | 1017.7 |
| 20260906042739 | 25 | 169 | 0.0 | 0.0 | 0.00 | 0.00 | 0.00 | 96 | 1017.9 |
| 20260906042238 | 25 | 169 | 1.6 | 1.6 | 0.00 | 0.00 | 0.00 | 96 | 1017.8 |
| 20260906041734 | 25 | 169 | 1.6 | 1.6 | 0.00 | 0.00 | 0.00 | 96 | 1017.9 |
| 20260906041229 | 26 | 169 | 0.0 | 0.0 | 0.00 | 0.00 | 0.00 | 96 | 1018.0 |
| 20260906040725 | 26 | 169 | 1.6 | 1.6 | 0.00 | 0.00 | 0.00 | 95 | 1017.9 |
| 20260906040220 | 26 | 169 | 0.0 | 0.0 | 0.00 | 0.00 | 0.00 | 95 | 1018.0 |
| 20260906035715 | 26 | 169 | 0.0 | 0.0 | 0.00 | 0.00 | 0.00 | 95 | 1018.0 |
| 20260906035210 | 26 | 169 | 0.0 | 0.0 | 0.00 | 0.00 | 0.00 | 95 | 1018.1 |
| 20260906034704 | 26 | 169 | 1.6 | 1.6 | 0.00 | 0.00 | 0.00 | 95 | 1018.0 |
| 20260906034159 | 26 | 169 | 0.0 | 0.0 | 0.00 | 0.00 | 0.00 | 95 | 1018.0 |
| 20260906033655 | 26 | 169 | 0.0 | 0.0 | 0.00 | 0.00 | 0.00 | 95 | 1018.1 |
| 20260906033156 | 26 | 169 | 0.0 | 0.0 | 0.00 | 0.00 | 0.00 | 95 | 1018.2 |
| 20260906032652 | 26 | 169 | 0.0 | 0.0 | 0.00 | 0.00 | 0.00 | 95 | 1018.1 |
| 20260906032146 | 26 | 169 | 0.0 | 1.6 | 0.00 | 0.00 | 0.00 | 95 | 1018.1 |
| 20260906031641 | 26 | 169 | 1.6 | 1.6 | 0.00 | 0.00 | 0.00 | 95 | 1018.2 |
| 20260906031137 | 26 | 169 | 0.0 | 0.0 | 0.00 | 0.00 | 0.00 | 94 | 1018.5 |
| 20260906030636 | 26 | 169 | 0.0 | 0.0 | 0.00 | 0.00 | 0.00 | 94 | 1018.4 |
| 20260906030132 | 26 | 171 | 3.2 | 3.2 | 0.00 | 0.00 | 0.00 | 94 | 1018.2 |
| 20260906025631 | 26 | 154 | 3.2 | 3.2 | 0.00 | 0.00 | 0.00 | 93 | 1018.3 |
| 20260906025130 | 26 | 128 | 0.0 | 0.0 | 0.00 | 0.00 | 0.00 | 93 | 1018.3 |
| 20260906024625 | 26 | 128 | 0.0 | 1.6 | 0.00 | 0.00 | 0.00 | 92 | 1018.4 |
| 20260906024119 | 26 | 126 | 0.0 | 0.0 | 0.00 | 0.00 | 0.00 | 93 | 1018.3 |
| 20260906023615 | 26 | 126 | 0.0 | 1.6 | 0.00 | 0.00 | 0.00 | 92 | 1018.3 |
| 20260906023109 | 26 | 108 | 1.6 | 1.6 | 0.00 | 0.00 | 0.00 | 91 | 1018.2 |
| 20260906022605 | 27 | 115 | 1.6 | 1.6 | 0.00 | 0.00 | 0.00 | 91 | 1018.1 |
| 20260906022101 | 27 | 176 | 3.2 | 3.2 | 0.00 | 0.00 | 0.00 | 90 | 1018.2 |
| 20260906021556 | 27 | 177 | 0.0 | 0.0 | 0.00 | 0.00 | 0.00 | 90 | 1018.1 |
| 20260906021055 | 27 | 178 | 1.6 | 3.2 | 0.00 | 0.00 | 0.00 | 90 | 1018.0 |
| 20260906020554 | 27 | 176 | 0.0 | 1.6 | 0.00 | 0.00 | 0.00 | 90 | 1017.9 |
| 20260906020054 | 27 | 176 | 0.0 | 0.0 | 0.00 | 0.00 | 0.00 | 89 | 1018.0 |
| 20260906015553 | 27 | 174 | 1.6 | 1.6 | 0.00 | 0.00 | 0.00 | 89 | 1017.9 |
| 20260906015048 | 27 | 163 | 0.0 | 1.6 | 0.00 | 0.00 | 0.00 | 88 | 1017.8 |
| 20260906014542 | 27 | 163 | 0.0 | 1.6 | 0.00 | 0.00 | 0.00 | 88 | 1017.6 |
| 20260906014038 | 27 | 163 | 0.0 | 1.6 | 0.00 | 0.00 | 0.00 | 87 | 1017.4 |
| 20260906013533 | 27 | 160 | 1.6 | 1.6 | 0.00 | 0.00 | 0.00 | 87 | 1017.3 |
| 20260906013029 | 27 | 173 | 3.2 | 4.8 | 0.00 | 0.00 | 0.00 | 87 | 1017.6 |
| 20260906012524 | 27 | 175 | 1.6 | 4.8 | 0.00 | 0.00 | 0.00 | 88 | 1017.4 |
| 20260906012023 | 27 | 168 | 3.2 | 4.8 | 0.00 | 0.00 | 0.00 | 88 | 1017.2 |
| 20260906011520 | 27 | 187 | 4.8 | 4.8 | 0.00 | 0.00 | 0.00 | 88 | 1017.1 |
| 20260906011019 | 27 | 171 | 3.2 | 4.8 | 0.00 | 0.00 | 0.00 | 88 | 1017.0 |
| 20260906010515 | 27 | 154 | 0.0 | 1.6 | 0.00 | 0.00 | 0.00 | 87 | 1017.1 |
| 20260906010011 | 27 | 154 | 0.0 | 0.0 | 0.00 | 0.00 | 0.00 | 87 | 1017.3 |
| 20260906005509 | 28 | 154 | 0.0 | 1.6 | 0.00 | 0.00 | 0.00 | 87 | 1017.1 |
| 20260906005008 | 28 | 168 | 3.2 | 4.8 | 0.00 | 0.00 | 0.00 | 86 | 1017.1 |
| 20260906004503 | 27 | 162 | 1.6 | 8.0 | 0.00 | 0.00 | 0.00 | 88 | 1017.1 |
| 20260906003958 | 27 | 176 | 4.8 | 4.8 | 0.00 | 0.00 | 0.00 | 90 | 1017.1 |
| 20260906003453 | 27 | 164 | 3.2 | 3.2 | 0.00 | 0.00 | 0.00 | 90 | 1017.0 |
| 20260906002949 | 27 | 145 | 0.0 | 3.2 | 0.00 | 0.00 | 0.00 | 90 | 1017.0 |
| 20260906002449 | 27 | 152 | 3.2 | 4.8 | 0.00 | 0.00 | 0.00 | 89 | 1017.1 |
| 20260906001944 | 28 | 138 | 0.0 | 1.6 | 0.00 | 0.00 | 0.00 | 87 | 1017.2 |
| 20260906001439 | 28 | 138 | 0.0 | 0.0 | 0.00 | 0.00 | 0.00 | 87 | 1017.4 |
| 20260906000929 | 28 | 138 | 0.0 | 0.0 | 0.00 | 0.00 | 0.00 | 87 | 1017.5 |
| 20260906000425 | 28 | 138 | 0.0 | 0.0 | 0.00 | 0.00 | 0.00 | 86 | 1017.3 |
| 20260905235919 | 28 | 138 | 0.0 | 0.0 | 0.00 | 0.00 | 0.00 | 85 | 1017.4 |
| 20260905235413 | 28 | 138 | 0.0 | 1.6 | 0.00 | 0.00 | 0.00 | 84 | 1017.6 |
| 20260905234908 | 28 | 138 | 0.0 | 1.6 | 0.00 | 0.00 | 0.00 | 84 | 1017.3 |
| 20260905234403 | 28 | 144 | 0.0 | 1.6 | 0.00 | 0.00 | 0.00 | 85 | 1017.2 |
| 20260905233858 | 29 | 143 | 0.0 | 1.6 | 0.00 | 0.00 | 0.00 | 84 | 1017.3 |
| 20260905233353 | 29 | 142 | 0.0 | 1.6 | 0.00 | 0.00 | 0.00 | 83 | 1017.5 |
| 20260905232847 | 30 | 151 | 3.2 | 3.2 | 0.00 | 0.00 | 0.00 | 82 | 1017.5 |
| 20260905232343 | 30 | 165 | 1.6 | 3.2 | 0.00 | 0.00 | 0.00 | 80 | 1017.3 |
| 20260905231838 | 30 | 156 | 1.6 | 1.6 | 0.00 | 0.00 | 0.00 | 78 | 1017.5 |
| 20260905231333 | 30 | 172 | 3.2 | 3.2 | 0.00 | 0.00 | 0.00 | 77 | 1017.5 |
| 20260905230830 | 30 | 162 | 1.6 | 3.2 | 0.00 | 0.00 | 0.00 | 77 | 1017.4 |
| 20260905230327 | 30 | 156 | 1.6 | 3.2 | 0.00 | 0.00 | 0.00 | 77 | 1017.5 |
| 20260905225826 | 31 | 172 | 3.2 | 4.8 | 0.00 | 0.00 | 0.00 | 76 | 1017.4 |
| 20260905225321 | 31 | 181 | 4.8 | 4.8 | 0.00 | 0.00 | 0.00 | 76 | 1017.1 |
| 20260905224816 | 31 | 201 | 3.2 | 3.2 | 0.00 | 0.00 | 0.00 | 76 | 1017.0 |
| 20260905224312 | 31 | 190 | 4.8 | 8.0 | 0.00 | 0.00 | 0.00 | 76 | 1017.0 |
| 20260905223807 | 31 | 157 | 3.2 | 4.8 | 0.00 | 0.00 | 0.00 | 75 | 1016.9 |
| 20260905223304 | 31 | 195 | 4.8 | 4.8 | 0.00 | 0.00 | 0.00 | 74 | 1016.8 |
| 20260905222759 | 31 | 188 | 3.2 | 3.2 | 0.00 | 0.00 | 0.00 | 73 | 1016.7 |
| 20260905222258 | 31 | 174 | 4.8 | 4.8 | 0.00 | 0.00 | 0.00 | 72 | 1016.8 |
| 20260905221754 | 32 | 184 | 4.8 | 4.8 | 0.00 | 0.00 | 0.00 | 72 | 1016.7 |
| 20260905221251 | 32 | 181 | 1.6 | 3.2 | 0.00 | 0.00 | 0.00 | 70 | 1016.7 |
| 20260905220746 | 32 | 241 | 3.2 | 4.8 | 0.00 | 0.00 | 0.00 | 69 | 1016.8 |
| 20260905220242 | 32 | 225 | 3.2 | 8.0 | 0.00 | 0.00 | 0.00 | 69 | 1016.8 |
| 20260905215741 | 33 | 161 | 4.8 | 8.0 | 0.00 | 0.00 | 0.00 | 68 | 1016.8 |
| 20260905215237 | 33 | 200 | 4.8 | 4.8 | 0.00 | 0.00 | 0.00 | 67 | 1017.0 |
| 20260905214733 | 32 | 190 | 3.2 | 9.7 | 0.00 | 0.00 | 0.00 | 69 | 1016.8 |
| 20260905214229 | 33 | 202 | 4.8 | 8.0 | 0.00 | 0.00 | 0.00 | 67 | 1017.1 |
| 20260905213723 | 34 | 255 | 6.4 | 9.7 | 0.00 | 0.00 | 0.00 | 65 | 1017.1 |
| 20260905213220 | 33 | 162 | 0.0 | 3.2 | 0.00 | 0.00 | 0.00 | 65 | 1016.9 |
| 20260905212714 | 33 | 239 | 3.2 | 4.8 | 0.00 | 0.00 | 0.00 | 65 | 1016.6 |
| 20260905212213 | 33 | 160 | 4.8 | 4.8 | 0.00 | 0.00 | 0.00 | 67 | 1017.2 |
| 20260905211708 | 33 | 217 | 9.7 | 9.7 | 0.00 | 0.00 | 0.00 | 65 | 1017.2 |
| 20260905211203 | 32 | 171 | 3.2 | 11.3 | 0.00 | 0.00 | 0.00 | 68 | 1017.1 |
| 20260905210655 | 33 | 158 | 4.8 | 9.7 | 0.00 | 0.00 | 0.00 | 69 | 1017.1 |
| 20260905210155 | 33 | 190 | 3.2 | 4.8 | 0.00 | 0.00 | 0.00 | 67 | 1016.9 |
| 20260905205654 | 33 | 170 | 4.8 | 9.7 | 0.00 | 0.00 | 0.00 | 66 | 1017.0 |
| 20260905205153 | 34 | 173 | 4.8 | 4.8 | 0.00 | 0.00 | 0.00 | 67 | 1016.7 |
| 20260905204653 | 33 | 30 | 3.2 | 4.8 | 0.00 | 0.00 | 0.00 | 66 | 1017.0 |
| 20260905204148 | 33 | 137 | 1.6 | 4.8 | 0.00 | 0.00 | 0.00 | 67 | 1016.8 |
| 20260905203643 | 33 | 68 | 6.4 | 8.0 | 0.00 | 0.00 | 0.00 | 66 | 1016.9 |
| 20260905203138 | 33 | 164 | 3.2 | 4.8 | 0.00 | 0.00 | 0.00 | 68 | 1017.0 |
| 20260905202634 | 33 | 160 | 1.6 | 4.8 | 0.00 | 0.00 | 0.00 | 65 | 1016.9 |
| 20260905202129 | 33 | 257 | 4.8 | 11.3 | 0.00 | 0.00 | 0.00 | 66 | 1017.1 |
| 20260905201624 | 33 | 169 | 4.8 | 8.0 | 0.00 | 0.00 | 0.00 | 65 | 1017.3 |
| 20260905201124 | 33 | 237 | 4.8 | 4.8 | 0.00 | 0.00 | 0.00 | 66 | 1017.0 |
| 20260905200620 | 33 | 212 | 8.0 | 11.3 | 0.00 | 0.00 | 0.00 | 66 | 1017.3 |
| 20260905200114 | 33 | 352 | 8.0 | 12.9 | 0.00 | 0.00 | 0.00 | 67 | 1017.1 |
| 20260905195613 | 33 | 170 | 1.6 | 4.8 | 0.00 | 0.00 | 0.00 | 67 | 1017.2 |
| 20260905195108 | 33 | 242 | 4.8 | 4.8 | 0.00 | 0.00 | 0.00 | 68 | 1017.4 |
| 20260905194603 | 33 | 162 | 3.2 | 3.2 | 0.00 | 0.00 | 0.00 | 68 | 1017.4 |
| 20260905194102 | 33 | 290 | 4.8 | 4.8 | 0.00 | 0.00 | 0.00 | 68 | 1017.4 |
| 20260905193556 | 33 | 182 | 11.3 | 12.9 | 0.00 | 0.00 | 0.00 | 68 | 1017.6 |
| 20260905193052 | 33 | 206 | 4.8 | 8.0 | 0.00 | 0.00 | 0.00 | 67 | 1017.7 |
| 20260905192548 | 33 | 50 | 3.2 | 3.2 | 0.00 | 0.00 | 0.00 | 67 | 1017.7 |
| 20260905192044 | 33 | 172 | 4.8 | 4.8 | 0.00 | 0.00 | 0.00 | 66 | 1018.0 |
| 20260905191542 | 33 | 252 | 3.2 | 4.8 | 0.00 | 0.00 | 0.00 | 68 | 1018.0 |
| 20260905191041 | 32 | 193 | 6.4 | 8.0 | 0.00 | 0.00 | 0.00 | 68 | 1017.9 |
| 20260905190540 | 31 | 140 | 1.6 | 8.0 | 0.00 | 0.00 | 0.00 | 75 | 1018.0 |
| 20260905190034 | 32 | 175 | 6.4 | 9.7 | 0.00 | 0.00 | 0.00 | 70 | 1017.6 |
| 20260905185533 | 32 | 202 | 8.0 | 9.7 | 0.00 | 0.00 | 0.00 | 67 | 1018.0 |
| 20260905185032 | 32 | 185 | 6.4 | 12.9 | 0.00 | 0.00 | 0.00 | 69 | 1018.2 |
| 20260905184527 | 33 | 197 | 8.0 | 9.7 | 0.00 | 0.00 | 0.00 | 68 | 1018.2 |
| 20260905184025 | 32 | 255 | 4.8 | 4.8 | 0.00 | 0.00 | 0.00 | 69 | 1018.2 |
| 20260905183520 | 32 | 144 | 0.0 | 3.2 | 0.00 | 0.00 | 0.00 | 70 | 1018.5 |
| 20260905183015 | 32 | 175 | 3.2 | 8.0 | 0.00 | 0.00 | 0.00 | 68 | 1018.3 |
| 20260905182515 | 32 | 273 | 6.4 | 9.7 | 0.00 | 0.00 | 0.00 | 69 | 1018.6 |
| 20260905182009 | 32 | 266 | 8.0 | 9.7 | 0.00 | 0.00 | 0.00 | 69 | 1018.7 |
| 20260905181504 | 32 | 214 | 3.2 | 8.0 | 0.00 | 0.00 | 0.00 | 68 | 1018.6 |
| 20260905181003 | 32 | 164 | 6.4 | 8.0 | 0.00 | 0.00 | 0.00 | 69 | 1018.8 |
| 20260905180458 | 32 | 177 | 4.8 | 8.0 | 0.00 | 0.00 | 0.00 | 72 | 1018.7 |
| 20260905175954 | 31 | 161 | 1.6 | 4.8 | 0.00 | 0.00 | 0.00 | 75 | 1018.8 |
| 20260905175453 | 32 | 181 | 4.8 | 11.3 | 0.00 | 0.00 | 0.00 | 74 | 1019.1 |
| 20260905174949 | 31 | 193 | 8.0 | 9.7 | 0.00 | 0.00 | 0.00 | 74 | 1019.2 |
| 20260905174443 | 31 | 155 | 0.0 | 1.6 | 0.00 | 0.00 | 0.00 | 74 | 1019.1 |
| 20260905173939 | 30 | 190 | 1.6 | 3.2 | 0.00 | 0.00 | 0.00 | 74 | 1019.3 |
| 20260905173436 | 30 | 88 | 1.6 | 3.2 | 0.00 | 0.00 | 0.00 | 75 | 1019.3 |
| 20260905172931 | 30 | 170 | 0.0 | 3.2 | 0.00 | 0.00 | 0.00 | 78 | 1019.5 |
| 20260905172429 | 30 | 88 | 3.2 | 3.2 | 0.00 | 0.00 | 0.00 | 78 | 1019.5 |
| 20260905171925 | 31 | 160 | 3.2 | 4.8 | 0.00 | 0.00 | 0.00 | 77 | 1019.6 |
| 20260905171421 | 31 | 110 | 1.6 | 1.6 | 0.00 | 0.00 | 0.00 | 75 | 1019.7 |
| 20260905170917 | 31 | 151 | 4.8 | 4.8 | 0.00 | 0.00 | 0.00 | 75 | 1019.6 |
| 20260905170413 | 31 | 187 | 8.0 | 11.3 | 0.00 | 0.00 | 0.00 | 75 | 1019.3 |
| 20260905165912 | 31 | 172 | 6.4 | 9.7 | 0.00 | 0.00 | 0.00 | 78 | 1019.6 |
| 20260905165408 | 31 | 221 | 6.4 | 11.3 | 0.00 | 0.00 | 0.00 | 75 | 1019.7 |
| 20260905164903 | 30 | 183 | 9.7 | 12.9 | 0.00 | 0.00 | 0.00 | 76 | 1019.6 |
| 20260905164357 | 31 | 121 | 3.2 | 4.8 | 0.00 | 0.00 | 0.00 | 76 | 1019.9 |
| 20260905163852 | 31 | 168 | 1.6 | 4.8 | 0.00 | 0.00 | 0.00 | 75 | 1019.9 |
| 20260905163349 | 30 | 210 | 1.6 | 3.2 | 0.00 | 0.00 | 0.00 | 78 | 1020.3 |
| 20260905162845 | 29 | 244 | 3.2 | 8.0 | 0.00 | 0.00 | 0.00 | 81 | 1020.4 |
| 20260905162344 | 30 | 274 | 3.2 | 4.8 | 0.00 | 0.00 | 0.00 | 79 | 1020.5 |
| 20260905161839 | 30 | 137 | 1.6 | 4.8 | 0.00 | 0.00 | 0.00 | 77 | 1020.2 |
| 20260905161338 | 30 | 169 | 0.0 | 3.2 | 0.00 | 0.00 | 0.00 | 78 | 1020.4 |
| 20260905160837 | 29 | 301 | 3.2 | 4.8 | 0.00 | 0.00 | 0.00 | 81 | 1020.5 |
| 20260905160331 | 30 | 266 | 3.2 | 8.0 | 0.00 | 0.00 | 0.00 | 80 | 1020.5 |
| 20260905155825 | 30 | 179 | 1.6 | 4.8 | 0.00 | 0.00 | 0.00 | 80 | 1020.7 |
| 20260905155324 | 29 | 16 | 3.2 | 4.8 | 0.00 | 0.00 | 0.00 | 82 | 1020.4 |
| 20260905154819 | 29 | 310 | 4.8 | 9.7 | 0.00 | 0.00 | 0.00 | 82 | 1020.6 |
| 20260905154315 | 30 | 17 | 3.2 | 4.8 | 0.00 | 0.00 | 0.00 | 80 | 1020.4 |
| 20260905153810 | 29 | 119 | 1.6 | 8.0 | 0.00 | 0.00 | 0.00 | 82 | 1020.7 |
| 20260905153306 | 30 | 96 | 3.2 | 3.2 | 0.00 | 0.00 | 0.00 | 81 | 1020.6 |
| 20260905152800 | 28 | 84 | 1.6 | 3.2 | 0.00 | 0.00 | 0.00 | 85 | 1020.7 |
| 20260905152259 | 28 | 77 | 3.2 | 8.0 | 0.00 | 0.00 | 0.00 | 86 | 1020.8 |
| 20260905151800 | 28 | 278 | 6.4 | 9.7 | 0.00 | 0.00 | 0.00 | 85 | 1020.9 |
| 20260905151255 | 28 | 139 | 3.2 | 3.2 | 0.00 | 0.00 | 0.00 | 85 | 1020.8 |
| 20260905150750 | 27 | 171 | 1.6 | 3.2 | 0.00 | 0.00 | 0.00 | 85 | 1020.8 |
| 20260905150250 | 27 | 224 | 4.8 | 4.8 | 0.00 | 0.00 | 0.00 | 87 | 1020.8 |
| 20260905145747 | 27 | 114 | 1.6 | 4.8 | 0.00 | 0.00 | 0.00 | 87 | 1020.9 |
| 20260905145242 | 28 | 13 | 8.0 | 11.3 | 0.00 | 0.00 | 0.00 | 85 | 1020.9 |
| 20260905144741 | 28 | 280 | 3.2 | 3.2 | 0.00 | 0.00 | 0.00 | 84 | 1020.9 |
| 20260905144237 | 27 | 75 | 3.2 | 4.8 | 0.00 | 0.00 | 0.00 | 88 | 1020.8 |
| 20260905143735 | 27 | 114 | 1.6 | 3.2 | 0.00 | 0.00 | 0.00 | 89 | 1021.0 |
| 20260905143235 | 27 | 199 | 4.8 | 4.8 | 0.00 | 0.00 | 0.00 | 89 | 1020.9 |
| 20260905142733 | 27 | 62 | 3.2 | 8.0 | 0.00 | 0.00 | 0.00 | 89 | 1021.1 |
| 20260905142228 | 27 | 259 | 1.6 | 3.2 | 0.00 | 0.00 | 0.00 | 89 | 1021.2 |
| 20260905141724 | 27 | 233 | 3.2 | 3.2 | 0.00 | 0.00 | 0.00 | 89 | 1021.0 |
| 20260905141220 | 27 | 176 | 1.6 | 3.2 | 0.00 | 0.00 | 0.00 | 90 | 1020.9 |
| 20260905140715 | 27 | 278 | 3.2 | 4.8 | 0.00 | 0.00 | 0.00 | 89 | 1020.9 |
| 20260905140214 | 27 | 79 | 1.6 | 3.2 | 0.00 | 0.00 | 0.00 | 90 | 1021.1 |
| 20260905135709 | 26 | 130 | 1.6 | 3.2 | 0.00 | 0.00 | 0.00 | 91 | 1021.0 |
| 20260905135205 | 26 | 147 | 0.0 | 4.8 | 0.00 | 0.00 | 0.00 | 92 | 1021.4 |
| 20260905134704 | 26 | 209 | 3.2 | 3.2 | 0.00 | 0.00 | 0.00 | 94 | 1021.2 |
| 20260905134204 | 26 | 204 | 3.2 | 4.8 | 0.00 | 0.00 | 0.00 | 97 | 1021.1 |
| 20260905133659 | 25 | 123 | 0.0 | 3.2 | 0.00 | 0.00 | 0.00 | 99 | 1021.2 |
| 20260905133154 | 25 | 135 | 0.0 | 4.8 | 0.00 | 0.00 | 0.00 | 99 | 1021.1 |
| 20260905132653 | 25 | 291 | 3.2 | 8.0 | 0.00 | 0.00 | 0.00 | 99 | 1021.1 |
| 20260905132149 | 25 | 104 | 1.6 | 8.0 | 0.00 | 0.00 | 0.00 | 99 | 1021.0 |
| 20260905131643 | 25 | 22 | 3.2 | 4.8 | 0.00 | 0.00 | 0.00 | 99 | 1021.0 |
| 20260905131138 | 25 | 151 | 1.6 | 1.6 | 0.00 | 0.00 | 0.00 | 99 | 1021.0 |
| 20260905130633 | 25 | 131 | 0.0 | 1.6 | 0.00 | 0.00 | 0.00 | 99 | 1020.9 |
| 20260905130132 | 25 | 122 | 0.0 | 3.2 | 0.00 | 0.00 | 0.00 | 99 | 1021.1 |
| 20260905125626 | 25 | 160 | 1.6 | 3.2 | 0.00 | 0.00 | 0.00 | 99 | 1021.2 |
| 20260905125123 | 25 | 159 | 0.0 | 1.6 | 0.00 | 0.00 | 0.00 | 99 | 1021.2 |
| 20260905124619 | 25 | 78 | 0.0 | 1.6 | 0.00 | 0.00 | 0.00 | 99 | 1021.1 |
| 20260905124115 | 25 | 100 | 1.6 | 4.8 | 0.00 | 0.00 | 0.00 | 99 | 1021.0 |
| 20260905123610 | 25 | 149 | 0.0 | 0.0 | 0.00 | 0.00 | 0.00 | 99 | 1021.1 |
| 20260905123107 | 25 | 167 | 0.0 | 0.0 | 0.00 | 0.00 | 0.00 | 99 | 1020.9 |
| 20260905122606 | 25 | 168 | 0.0 | 0.0 | 0.00 | 0.00 | 0.00 | 99 | 1020.8 |
| 20260905122101 | 25 | 163 | 0.0 | 0.0 | 0.00 | 0.00 | 0.00 | 99 | 1020.8 |
| 20260905121555 | 25 | 163 | 0.0 | 0.0 | 0.00 | 0.00 | 0.00 | 99 | 1020.8 |
| 20260905121051 | 25 | 163 | 0.0 | 0.0 | 0.00 | 0.00 | 0.00 | 99 | 1021.1 |
| 20260905120550 | 25 | 161 | 0.0 | 0.0 | 0.00 | 0.00 | 0.00 | 99 | 1021.0 |
| 20260905120045 | 24 | 161 | 0.0 | 0.0 | 0.00 | 0.00 | 0.00 | 99 | 1020.7 |
| 20260905115544 | 24 | 161 | 0.0 | 0.0 | 0.00 | 0.00 | 0.00 | 99 | 1020.6 |
| 20260905115039 | 24 | 161 | 0.0 | 0.0 | 0.00 | 0.00 | 0.00 | 99 | 1020.7 |
| 20260905114538 | 24 | 161 | 0.0 | 0.0 | 0.00 | 0.00 | 0.00 | 99 | 1020.6 |
| 20260905114038 | 24 | 161 | 0.0 | 0.0 | 0.00 | 0.00 | 0.00 | 99 | 1020.8 |
| 20260905113532 | 24 | 161 | 0.0 | 0.0 | 0.00 | 0.00 | 0.00 | 99 | 1020.5 |
| 20260905113028 | 24 | 162 | 0.0 | 0.0 | 0.00 | 0.00 | 0.00 | 99 | 1020.5 |
| 20260905112523 | 24 | 162 | 0.0 | 0.0 | 0.00 | 0.00 | 0.00 | 99 | 1020.4 |
| 20260905112019 | 24 | 162 | 0.0 | 0.0 | 0.00 | 0.00 | 0.00 | 99 | 1020.3 |
| 20260905111513 | 24 | 162 | 0.0 | 0.0 | 0.00 | 0.00 | 0.00 | 99 | 1020.2 |
| 20260905111013 | 24 | 162 | 0.0 | 0.0 | 0.00 | 0.00 | 0.00 | 99 | 1020.5 |
| 20260905110512 | 24 | 162 | 0.0 | 0.0 | 0.00 | 0.00 | 0.00 | 99 | 1020.4 |